Weather History for KONA - October, 2014

Change the Weather History Date:

Monday, October 6, 2014

  Actual Average Record
Temperature  
Mean Temperature 46 °F -  
Max Temperature 59 °F 62 °F 89 °F (2007)
Min Temperature 33 °F 44 °F 33 °F (2000)
Degree Days  
Heating Degree Days 19    
Moisture  
Dew Point 36 °F    
Average Humidity 68    
Maximum Humidity 100    
Minimum Humidity 38    
Precipitation  
Precipitation 0.00 in - - ()
Sea Level Pressure  
Sea Level Pressure 29.53 in    
Wind  
Wind Speed 3 mph (WSW)    
Max Wind Speed 14 mph    
Max Gust Speed 22 mph    
Visibility 9 miles    
Events      
Averages and records for this station are not official NWS values.
T = Trace of Precipitation, MM = Missing Value Source: NWS Daily Summary

Daily Weather History Graph

Daily Weather History Graph

Search for Another Location

Airport or City:

Trip Planner

Search our weather history database for the weather conditions in past years. The results will help you decide how hot, cold, wet, or windy it might be!

Date:

Astronomy

Oct. 06, 2014 Rise Set
Actual Time 7:10 AM CDT 6:38 PM CDT
Civil Twilight 6:41 AM CDT 7:07 PM CDT
Nautical Twilight 6:08 AM CDT 7:40 PM CDT
Astronomical Twilight 5:34 AM CDT 8:14 PM CDT
Moon 5:38 PM CDT (10/6) 4:53 AM CDT (10/6)
Length of Visible Light 12h 25m
Length of Day
11h 28m
Waxing Gibbous, 96% of the Moon is Illuminated
Oct 6
Waxing Gibbous
Oct 8
Full
Oct 15
Last Quarter
Oct 23
New
Oct 30
First Quarter

Hourly Weather History & Observations

Time (CDT) Temp. Windchill Dew Point Humidity Pressure Visibility Wind Dir Wind Speed Gust Speed Precip Events Conditions
12:14 AM 44.6 °F - 39.2 °F 81% 29.57 in 10.0 mi Calm Calm - N/A   Overcast
12:35 AM 42.8 °F - 37.4 °F 81% 29.56 in 10.0 mi Calm Calm - N/A   Overcast
12:54 AM 42.8 °F - 37.4 °F 81% 29.56 in 10.0 mi Calm Calm - N/A   Scattered Clouds
1:15 AM 41.0 °F - 37.4 °F 87% 29.56 in 10.0 mi Calm Calm - N/A   Clear
1:35 AM 41.0 °F - 37.4 °F 87% 29.57 in 10.0 mi Calm Calm - N/A   Clear
1:54 AM 41.0 °F - 37.4 °F 87% 29.56 in 10.0 mi Calm Calm - N/A   Clear
2:15 AM 41.0 °F - 37.4 °F 87% 29.56 in 10.0 mi Calm Calm - N/A   Clear
2:35 AM 39.2 °F - 37.4 °F 93% 29.56 in 7.0 mi Calm Calm - N/A   Clear
2:54 AM 37.4 °F - 37.4 °F 100% 29.55 in 10.0 mi Calm Calm - N/A   Clear
3:15 AM 37.4 °F - 37.4 °F 100% 29.55 in 7.0 mi Calm Calm - N/A   Clear
3:35 AM 37.4 °F - 37.4 °F 100% 29.55 in 7.0 mi Calm Calm - N/A   Clear
3:54 AM 37.4 °F - 37.4 °F 100% 29.55 in 10.0 mi Calm Calm - N/A   Clear
4:15 AM 35.6 °F - 35.6 °F 100% 29.55 in 5.0 mi Calm Calm - N/A   Clear
4:35 AM 35.6 °F - 35.6 °F 100% 29.55 in 10.0 mi Calm Calm - N/A   Clear
4:54 AM 35.6 °F - 35.6 °F 100% 29.55 in 4.0 mi Calm Calm - N/A   Clear
5:15 AM 35.6 °F - 35.6 °F 100% 29.55 in 3.0 mi Calm Calm - N/A   Clear
5:34 AM 35.6 °F - 35.6 °F 100% 29.56 in 7.0 mi Calm Calm - N/A   Clear
5:55 AM 35.6 °F - 35.6 °F 100% 29.55 in 10.0 mi Calm Calm - N/A   Clear
6:15 AM 35.6 °F - 35.6 °F 100% 29.55 in 10.0 mi Calm Calm - N/A   Clear
6:34 AM 35.6 °F - 35.6 °F 100% 29.56 in 1.2 mi Calm Calm - N/A   Mist
6:55 AM 35.6 °F - 35.6 °F 100% 29.56 in 4.0 mi Calm Calm - N/A   Clear
7:14 AM 33.8 °F - 33.8 °F 100% 29.57 in 2.0 mi Calm Calm - N/A   Clear
7:35 AM 35.6 °F - 35.6 °F 100% 29.57 in 7.0 mi Calm Calm - N/A   Clear
7:55 AM 35.6 °F - 35.6 °F 100% 29.57 in 7.0 mi Calm Calm - N/A   Clear
8:14 AM 37.4 °F - 37.4 °F 100% 29.57 in 10.0 mi Calm Calm - N/A   Clear
8:35 AM 37.4 °F - 37.4 °F 100% 29.57 in 10.0 mi Calm Calm - N/A   Clear
8:55 AM 39.2 °F - 37.4 °F 93% 29.57 in 10.0 mi Calm Calm - N/A   Clear
9:14 AM 41.0 °F 39.0 °F 35.6 °F 81% 29.59 in 10.0 mi NNW 3.5 mph - N/A   Clear
9:35 AM 42.8 °F 39.3 °F 35.6 °F 76% 29.59 in 10.0 mi WNW 5.8 mph - N/A   Clear
9:54 AM 44.6 °F 43.1 °F 35.6 °F 71% 29.59 in 10.0 mi NW 3.5 mph - N/A   Clear
10:15 AM 48.2 °F - 35.6 °F 62% 29.59 in 10.0 mi WNW 4.6 mph - N/A   Clear
10:35 AM 48.2 °F - 33.8 °F 58% 29.59 in 10.0 mi WNW 4.6 mph - N/A   Clear
10:54 AM 50.0 °F - 32.0 °F 50% 29.58 in 10.0 mi West 5.8 mph - N/A   Clear
11:15 AM 50.0 °F - 32.0 °F 50% 29.57 in 10.0 mi West 8.1 mph 16.1 mph N/A   Clear
11:35 AM 51.8 °F - 32.0 °F 47% 29.57 in 10.0 mi West 4.6 mph - N/A   Clear
11:54 AM 53.6 °F - 32.0 °F 44% 29.57 in 10.0 mi WNW 13.8 mph 19.6 mph N/A   Clear
12:15 PM 53.6 °F - 32.0 °F 44% 29.57 in 10.0 mi West 8.1 mph 16.1 mph N/A   Clear
12:35 PM 53.6 °F - 32.0 °F 44% 29.56 in 10.0 mi West 9.2 mph 21.9 mph N/A   Clear
12:54 PM 53.6 °F - 32.0 °F 44% 29.55 in 10.0 mi West 6.9 mph 17.3 mph N/A   Clear
1:15 PM 53.6 °F - 32.0 °F 44% 29.54 in 10.0 mi West 6.9 mph - N/A   Clear
1:34 PM 53.6 °F - 30.2 °F 41% 29.53 in 10.0 mi West 6.9 mph - N/A   Clear
1:55 PM 53.6 °F - 30.2 °F 41% 29.53 in 10.0 mi WNW 12.7 mph 21.9 mph N/A   Clear
2:14 PM 55.4 °F - 32.0 °F 41% 29.52 in 10.0 mi SW 8.1 mph 16.1 mph N/A   Clear
2:35 PM 55.4 °F - 30.2 °F 38% 29.52 in 10.0 mi West 5.8 mph 16.1 mph N/A   Clear
2:55 PM 55.4 °F - 30.2 °F 38% 29.52 in 10.0 mi West 9.2 mph 19.6 mph N/A   Clear
3:14 PM 55.4 °F - 32.0 °F 41% 29.52 in 10.0 mi West 11.5 mph - N/A   Scattered Clouds
3:35 PM 55.4 °F - 33.8 °F 44% 29.52 in 10.0 mi West 8.1 mph - N/A   Mostly Cloudy
3:55 PM 55.4 °F - 35.6 °F 47% 29.52 in 10.0 mi WSW 4.6 mph - N/A   Mostly Cloudy
4:14 PM 55.4 °F - 35.6 °F 47% 29.52 in 10.0 mi West 8.1 mph - N/A   Mostly Cloudy
4:35 PM 59.0 °F - 37.4 °F 45% 29.51 in 10.0 mi WSW 4.6 mph - N/A   Scattered Clouds
4:55 PM 59.0 °F - 37.4 °F 45% 29.50 in 10.0 mi WSW 5.8 mph - N/A   Scattered Clouds
5:14 PM 59.0 °F - 37.4 °F 45% 29.49 in 10.0 mi SSW 3.5 mph - N/A   Scattered Clouds
5:35 PM 57.2 °F - 37.4 °F 48% 29.49 in 10.0 mi SSW 3.5 mph - N/A   Scattered Clouds
5:55 PM 55.4 °F - 37.4 °F 51% 29.49 in 10.0 mi SW 3.5 mph - N/A   Mostly Cloudy
6:14 PM 55.4 °F - 39.2 °F 54% 29.49 in 10.0 mi SSW 4.6 mph - N/A   Mostly Cloudy
6:35 PM 55.4 °F - 41.0 °F 58% 29.49 in 10.0 mi SSW 4.6 mph - N/A   Mostly Cloudy
6:55 PM 55.4 °F - 39.2 °F 54% 29.49 in 10.0 mi SW 5.8 mph - N/A   Overcast
7:14 PM 55.4 °F - 39.2 °F 54% 29.49 in 10.0 mi WSW 8.1 mph - N/A   Mostly Cloudy
7:35 PM 55.4 °F - 39.2 °F 54% 29.49 in 10.0 mi WSW 6.9 mph - N/A   Mostly Cloudy
7:54 PM 55.4 °F - 39.2 °F 54% 29.49 in 10.0 mi SW 10.4 mph - N/A   Mostly Cloudy
8:15 PM 55.4 °F - 39.2 °F 54% 29.49 in 10.0 mi SW 9.2 mph 16.1 mph N/A   Overcast
8:35 PM 55.4 °F - 39.2 °F 54% 29.49 in 10.0 mi WSW 8.1 mph 16.1 mph N/A   Overcast
8:54 PM 55.4 °F - 39.2 °F 54% 29.49 in 10.0 mi SW 10.4 mph 16.1 mph N/A   Overcast
9:15 PM 55.4 °F - 39.2 °F 54% 29.48 in 10.0 mi SW 12.7 mph 16.1 mph N/A   Overcast
9:35 PM 55.4 °F - 39.2 °F 54% 29.48 in 10.0 mi WSW 12.7 mph 16.1 mph N/A   Overcast
9:54 PM 55.4 °F - 41.0 °F 58% 29.48 in 10.0 mi SW 13.8 mph 19.6 mph N/A   Mostly Cloudy
10:15 PM 53.6 °F - 37.4 °F 54% 29.48 in 10.0 mi SW 12.7 mph 18.4 mph N/A   Clear
10:35 PM 53.6 °F - 37.4 °F 54% 29.48 in 10.0 mi SW 11.5 mph 19.6 mph N/A   Clear
10:54 PM 53.6 °F - 37.4 °F 54% 29.48 in 10.0 mi WSW 10.4 mph 18.4 mph N/A   Clear
11:15 PM 53.6 °F - 37.4 °F 54% 29.48 in 10.0 mi WSW 8.1 mph 17.3 mph N/A   Clear
11:35 PM 53.6 °F - 37.4 °F 54% 29.48 in 10.0 mi WSW 9.2 mph 16.1 mph N/A   Clear
11:54 PM 53.6 °F - 37.4 °F 54% 29.48 in 10.0 mi WSW 9.2 mph 16.1 mph N/A   Clear